Carlsbad, CA

10:49 PM PDT on July 27, 2017 (GMT -0700)
McClellan-Palomar

Weather History for KCRQ - October, 2012

Change the Weather History Date:

Thursday, October 25, 2012

  Actual Average Record
Temperature  
Mean Temperature 63 °F -  
Max Temperature 72 °F 67 °F 84 °F (2007)
Min Temperature 55 °F 54 °F 54 °F (2001)
Degree Days  
Heating Degree Days 2    
Growing Degree Days 13 (Base 50)    
Moisture  
Dew Point 49 °F    
Average Humidity 61    
Maximum Humidity 78    
Minimum Humidity 38    
Precipitation  
Precipitation 0.00 in - - ()
Sea Level Pressure  
Sea Level Pressure 30.00 in    
Wind  
Wind Speed 2 mph (ENE)    
Max Wind Speed 8 mph    
Max Gust Speed -    
Visibility 10 miles    
Events      
Averages and records for this station are not official NWS values.
T = Trace of Precipitation, MM = Missing Value Source: NWS Daily Summary

Daily Weather History Graph

Daily Weather History Graph

Search for Another Location

Airport or City:

Trip Planner

Search our weather history database for the weather conditions in past years. The results will help you decide how hot, cold, wet, or windy it might be!

Date:

Astronomy

Oct. 25, 2012 Rise Set
Actual Time 7:01 AM PDT 6:03 PM PDT
Civil Twilight 6:36 AM PDT 6:29 PM PDT
Nautical Twilight 6:07 AM PDT 6:58 PM PDT
Astronomical Twilight 5:38 AM PDT 7:26 PM PDT
Moon 3:43 PM PDT (10/25) 3:13 AM PDT (10/25)
Length of Visible Light 11h 52m
Length of Day
11h 01m
Waxing Gibbous, 85% of the Moon is Illuminated
Oct 25
Waxing Gibbous
Oct 29
Full
Nov 6
Last Quarter
Nov 13
New
Nov 20
First Quarter

Hourly Weather History & Observations

Time (PDT) Temp. Dew Point Humidity Pressure Visibility Wind Dir Wind Speed Gust Speed Precip Events Conditions
12:53 AM 57.9 °F 48.0 °F 70% 30.04 in 10.0 mi East 3.5 mph - N/A   Clear
1:53 AM 57.0 °F 48.0 °F 72% 30.04 in 10.0 mi Calm Calm - N/A   Clear
2:53 AM 55.9 °F 48.0 °F 75% 30.03 in 10.0 mi Calm Calm - N/A   Clear
3:53 AM 55.9 °F 48.0 °F 75% 30.03 in 10.0 mi ENE 3.5 mph - N/A   Clear
4:53 AM 55.9 °F 48.0 °F 75% 30.03 in 10.0 mi Calm Calm - N/A   Clear
5:53 AM 55.4 °F 46.4 °F 72% 30.04 in 10.0 mi Calm Calm - N/A   Clear
6:53 AM 55.0 °F 46.9 °F 74% 30.03 in 10.0 mi Calm Calm - N/A   Clear
7:53 AM 57.0 °F 48.0 °F 72% 30.04 in 10.0 mi ENE 4.6 mph - N/A   Clear
8:53 AM 62.1 °F 48.9 °F 62% 30.06 in 10.0 mi Calm Calm - N/A   Clear
9:53 AM 66.9 °F 46.9 °F 49% 30.06 in 10.0 mi Calm Calm - N/A   Clear
10:53 AM 69.1 °F 45.0 °F 42% 30.05 in 10.0 mi Variable 3.5 mph - N/A   Clear
11:53 AM 70.0 °F 46.0 °F 42% 30.03 in 10.0 mi WNW 4.6 mph - N/A   Clear
12:53 PM 70.0 °F 43.0 °F 38% 30.00 in 10.0 mi WSW 8.1 mph - N/A   Clear
1:53 PM 69.1 °F 46.0 °F 44% 29.99 in 10.0 mi WNW 8.1 mph - N/A   Clear
2:53 PM 71.1 °F 48.0 °F 44% 29.96 in 10.0 mi Calm Calm - N/A   Clear
3:53 PM 71.1 °F 48.0 °F 44% 29.95 in 10.0 mi Variable 3.5 mph - N/A   Clear
4:53 PM 70.0 °F 48.9 °F 47% 29.94 in 10.0 mi Variable 4.6 mph - N/A   Clear
5:53 PM 68.0 °F 55.9 °F 65% 29.94 in 10.0 mi Variable 4.6 mph - N/A   Clear
6:53 PM 66.9 °F 57.9 °F 73% 29.95 in 10.0 mi Calm Calm - N/A   Clear
7:53 PM 66.0 °F 59.0 °F 78% 29.95 in 10.0 mi Calm Calm - N/A   Clear
8:53 PM 64.4 °F 57.2 °F 77% 29.95 in 10.0 mi ESE 5.8 mph - N/A   Clear
9:53 PM 62.1 °F 48.9 °F 62% 29.95 in 10.0 mi East 4.6 mph - N/A   Clear
10:53 PM 62.1 °F 46.9 °F 58% 29.95 in 10.0 mi Calm Calm - N/A   Clear
11:53 PM 62.1 °F 46.0 °F 56% 29.94 in 10.0 mi Calm Calm - N/A   Clear